SCP
1 1 1 1 1 1 1 1 1 1 1 1 1 1 1 1 1 1 1 1 2 2 2 1 1 1 1 1 1 1 1 1 1 1 0 0 0 0 0 0 0 0 0
0 0 0 0 0 1 1 1 1 1 1 1 1 1 1 1 1 1 1 1 2 2 2 2 2 1 1 1 1 1 1 1 1 1 1 1 1 1 1 0 0 0 0
0 0 0 0 0 0 0 1 1 1 1 1 1 1 1 1 1 1 1 1 2 2 2 2 2 2 1 1 1 1 1 1 1 1 1 1 1 1 1 0 0 0 0
0 0 0 0 0 0 0 0 0 0 0 0 1 1 1 1 1 1 1 1 1 1 1 1 2 2 1 1 1 1 1 2 2 2 1 1 1 1 1 1 0 0 0
0 0 0 0 0 0 0 0 0 0 0 0 0 0 0 0 1 1 0 0 1 1 1 1 1 1 1 1 1 1 1 2 2 2 1 1 1 1 1 1 1 0 0
0 0 0 0 0 0 0 0 0 0 0 0 0 0 0 0 0 0 0 0 0 1 1 1 1 1 1 1 1 1 1 1 2 2 1 1 1 1 1 1 1 1 1
0 0 0 0 0 0 0 0 0 0 0 0 0 0 0 0 0 0 0 0 0 1 1 1 1 1 1 1 1 1 1 1 1 1 1 1 1 1 1 1 1 1 1
0 0 0 0 0 0 0 0 0 0 0 0 0 0 0 0 0 0 0 0 0 0 1 1 1 1 1 1 1 1 1 1 1 1 1 1 1 1 1 1 1 1 1
0 0 0 0 0 0 0 0 0 0 0 0 0 0 0 0 0 0 0 0 0 0 0 1 1 1 1 1 1 1 1 1 1 1 1 1 1 1 1 1 1 1 1
0 0 0 0 0 0 0 0 0 0 0 0 0 0 0 0 0 0 0 0 0 0 0 0 1 1 1 1 1 1 1 1 1 1 1 1 1 1 1 1 1 1 1
0 0 0 0 0 0 0 0 0 0 0 0 0 0 0 0 0 0 0 0 0 0 0 0 1 1 1 1 1 1 1 1 1 1 1 1 1 1 1 1 1 1 1
0 0 0 0 0 0 0 0 0 0 0 0 0 0 0 0 0 0 0 0 0 0 0 0 0 1 1 1 1 1 1 1 1 1 1 1 1 1 1 1 1 1 1
0 0 0 0 0 0 0 0 0 0 0 0 0 0 0 0 0 0 0 0 0 0 0 0 0 0 0 1 1 0 1 1 1 1 1 1 1 1 1 1 1 1 1
0 0 0 0 0 0 0 0 0 0 0 0 0 0 0 0 0 0 0 0 0 0 0 0 0 0 0 0 0 0 0 0 0 0 0 1 1 1 1 1 1 1 1
0 0 0 0 0 0 0 0 0 0 0 0 0 0 0 0 0 0 0 0 0 0 0 0 0 0 0 0 0 0 0 0 0 0 0 0 0 0 0 0 1 1 1
0 0 0 0 0 0 0 0 0 0 0 0 0 0 0 0 0 0 0 0 0 0 0 0 0 0 0 0 0 0 0 0 0 0 0 0 0 0 0 0 0 0 0
0 0 0 0 0 0 0 0 0 0 0 0 0 0 0 0 0 0 0 0 0 0 0 0 0 0 0 0 0 0 0 0 0 0 0 0 0 0 0 0 0 0 0
0 0 0 0 0 0 0 0 0 0 0 0 0 0 0 0 0 0 0 0 0 0 0 0 0 0 0 0 0 0 0 0 0 0 0 0 0 0 0 0 0 0 0
0 0 0 0 0 0 0 0 0 0 0 0 0 0 0 0 0 0 0 0 0 0 0 0 0 0 0 0 0 0 0 0 0 0 0 0 0 0 0 0 0 0 0
0 0 0 0 0 0 0 0 0 0 0 0 0 0 0 0 0 0 0 0 0 0 0 0 0 0 0 0 0 0 0 0 0 0 0 1 0 0 0 0 0 0 0
0 0 0 0 0 0 0 0 0 0 0 0 0 0 0 0 0 0 0 0 0 0 0 0 0 0 0 0 0 0 0 0 0 0 1 1 1 1 1 0 0 0 0
0 0 0 0 0 0 0 0 0 0 0 0 0 0 0 0 0 0 0 0 0 0 0 0 0 0 0 0 0 0 0 0 0 0 1 1 1 1 1 0 0 0 0
0 0 0 0 0 0 0 0 0 0 0 0 0 0 0 0 0 0 0 0 0 0 0 0 0 0 0 0 0 0 0 0 0 0 0 1 1 1 1 0 0 0 0
0 0 0 0 0 0 0 0 0 0 0 0 0 0 0 0 0 0 0 0 0 0 0 0 0 0 0 0 0 0 0 0 0 0 0 1 1 1 1 0 0 0 0
0 0 0 0 0 0 0 0 0 0 0 0 0 0 0 0 0 0 0 0 0 0 0 0 0 0 0 0 0 0 0 0 0 0 0 1 1 1 1 0 0 0 0
0 0 0 0 0 0 0 0 0 0 0 0 0 0 0 0 0 0 0 0 0 0 0 0 0 0 0 0 0 0 0 0 0 0 0 0 1 1 1 0 0 0 0
Wind_Speed
2 1 1 1 1 1 1 1 0 0 1 1 1 2 3 3 3 3 3 7 8 11 14 16 16 17 17 16 16 16 16 16 14 13 13 13 13 14 13 12 11 11 10
2 1 1 1 0 1 1 1 1 0 0 1 2 2 3 3 3 3 3 5 8 10 13 15 16 16 17 17 17 17 16 16 15 14 13 13 13 13 13 13 12 11 10
2 2 2 1 1 1 2 1 1 1 0 1 2 2 2 3 3 3 4 3 4 8 12 14 14 15 16 17 18 18 17 16 15 15 15 14 13 13 13 13 13 12 11
3 2 2 1 1 2 2 1 1 1 1 1 1 2 2 2 3 3 3 4 4 4 7 12 13 15 16 17 17 18 18 17 17 17 16 16 15 14 14 14 13 13 12
3 3 2 2 2 2 2 1 2 1 1 1 2 2 2 2 3 3 4 4 4 5 5 7 12 13 15 17 17 17 18 19 18 18 19 18 17 16 15 15 14 14 13
3 3 2 2 2 2 2 2 2 1 1 1 2 3 3 3 3 3 3 3 3 5 5 6 5 7 13 15 16 18 19 19 19 19 19 20 19 18 17 17 16 15 15
3 3 3 2 2 2 2 2 1 2 2 1 1 3 3 2 2 2 2 2 3 3 3 4 4 4 5 11 13 15 18 20 19 19 19 20 20 19 18 18 18 17 16
3 3 3 2 2 2 2 2 2 1 1 2 1 1 3 4 3 3 2 1 2 2 2 3 4 5 5 4 6 13 17 18 19 19 19 19 20 20 20 20 19 19 18
2 2 3 3 2 2 2 1 2 2 1 1 1 1 1 1 3 3 3 3 3 2 2 3 3 3 4 4 5 8 12 14 16 18 19 21 20 20 20 21 21 20 20
1 2 3 3 3 2 2 1 2 1 2 0 1 0 1 2 1 3 3 3 4 3 4 3 3 3 3 2 4 7 9 10 12 15 16 17 19 20 21 22 22 22 21
2 2 2 2 2 2 2 2 2 2 1 2 1 0 0 0 1 2 3 4 3 3 3 4 3 3 3 2 2 5 7 8 9 10 12 15 16 19 20 22 23 23 23
1 1 2 2 2 1 2 2 2 2 2 2 1 1 1 1 2 2 3 3 3 3 4 3 3 3 3 3 4 5 6 6 6 7 8 10 12 15 18 20 22 23 24
0 0 1 1 1 1 2 2 2 2 2 2 2 2 2 2 2 2 2 3 3 3 3 2 2 2 3 2 3 6 6 6 6 7 8 7 9 11 13 16 19 21 23
2 2 1 1 1 1 1 1 1 2 2 2 3 3 2 3 3 3 3 2 2 2 2 4 2 3 2 3 4 6 5 6 6 6 7 7 7 8 10 13 15 18 20
2 2 2 2 2 2 2 2 2 2 2 2 3 3 3 3 3 3 3 3 3 3 4 3 3 2 2 3 4 4 4 6 7 7 7 7 7 8 9 10 12 13 15
2 2 2 2 2 2 2 2 2 2 3 3 3 3 3 3 3 3 3 4 4 4 4 3 3 3 4 5 5 5 5 8 8 8 8 8 8 8 9 9 10 12 13
3 3 3 3 3 3 3 3 3 4 4 4 3 4 5 4 3 3 3 3 4 4 6 5 3 3 4 6 6 5 5 5 5 8 9 9 9 9 9 9 10 10 12
4 4 3 3 4 4 3 4 5 4 5 5 5 5 6 4 4 4 3 4 4 5 6 7 4 3 5 5 6 6 5 5 5 7 9 9 9 10 9 9 10 11 11
4 4 4 4 5 4 4 5 5 5 6 6 6 6 6 5 6 5 5 5 4 5 5 5 5 3 4 4 4 5 5 4 5 6 8 9 9 10 10 10 10 11 11
5 5 5 5 5 5 5 5 5 6 6 6 6 7 7 7 7 7 5 6 5 5 5 5 6 5 5 4 4 4 5 4 4 4 5 6 7 8 9 10 11 11 12
6 5 5 5 5 5 6 6 6 6 6 7 7 7 8 9 11 8 6 6 6 5 5 5 6 5 5 4 4 3 5 5 5 4 4 4 4 4 5 8 10 11 12
5 5 6 6 6 6 8 10 7 6 7 7 8 8 8 9 11 12 12 11 9 8 7 6 6 7 8 6 5 5 4 4 4 2 3 4 3 5 5 5 8 10 11
5 6 6 7 7 9 11 11 11 7 8 8 9 8 7 7 8 7 9 10 10 12 13 9 9 10 9 7 6 6 6 6 6 3 3 5 4 5 5 6 9 10 11
5 6 7 7 7 9 12 12 12 8 8 9 9 9 9 9 8 8 8 8 9 9 9 9 10 11 10 9 8 7 7 7 6 5 5 5 4 5 5 5 8 10 11
6 6 6 7 8 10 12 13 11 6 7 10 10 9 10 10 12 11 8 9 9 9 9 12 12 12 13 12 9 6 6 5 6 5 5 5 5 5 5 5 6 9 10
7 6 7 8 9 10 12 13 11 6 8 8 8 8 12 13 13 11 9 9 10 10 8 7 7 9 10 10 11 10 8 7 6 5 5 6 4 4 4 3 3 4 5
Wind_Direction
173 170 166 165 151 130 161 150 155 226 266 273 258 242 243 234 229 230 257 266 241 220 217 212 208 206 204 203 204 203 201 199 195 192 191 189 186 185 185 185 183 179 177
159 150 128 103 94 122 120 106 123 138 18 299 294 286 272 256 236 229 241 263 259 236 226 222 219 217 211 209 209 209 207 205 200 196 196 195 192 190 191 191 189 186 183
138 129 118 100 87 88 89 83 71 64 349 310 307 305 288 269 256 242 244 247 259 252 237 228 223 222 220 218 214 213 211 209 205 200 199 199 197 194 194 195 194 191 189
132 126 116 103 87 76 82 91 72 59 2 335 311 302 294 285 277 265 253 250 250 252 247 237 228 228 227 224 220 219 217 215 210 205 203 203 202 200 198 198 199 196 194
126 121 110 99 90 79 70 75 72 78 14 331 302 290 293 288 284 276 264 257 252 250 248 247 240 237 234 232 228 227 225 221 217 211 208 208 207 205 203 202 202 200 198
124 115 106 99 97 86 67 63 71 59 37 326 315 314 303 297 290 278 276 273 265 257 248 248 246 246 244 241 233 231 230 226 223 219 214 213 212 209 207 205 204 203 202
126 124 121 111 107 101 93 88 88 59 23 0 8 336 327 325 313 299 296 289 293 287 272 257 247 244 251 249 239 234 234 231 227 224 221 218 216 213 210 209 208 205 205
137 142 138 134 125 111 95 85 94 91 22 27 71 34 349 342 341 357 344 343 333 321 315 294 268 252 249 248 245 237 235 233 231 228 225 224 222 217 213 212 211 209 207
142 143 147 141 137 130 136 129 125 130 118 14 51 125 122 294 314 326 343 353 344 334 327 312 300 280 261 248 249 248 244 236 233 232 228 226 224 220 216 215 214 213 211
104 142 145 148 147 144 150 163 135 134 135 138 355 14 181 184 242 315 322 335 341 339 332 321 314 305 288 265 254 249 250 246 240 238 234 230 227 223 219 217 218 217 215
53 102 138 148 154 156 167 168 145 143 151 168 189 197 118 86 202 230 293 318 327 317 316 311 308 311 316 299 275 265 256 250 248 245 241 235 231 229 225 223 223 223 220
33 61 115 134 153 164 181 185 176 171 178 182 190 189 189 198 207 211 253 286 300 300 307 302 301 304 307 309 299 300 285 264 252 250 248 240 233 232 231 228 228 228 227
182 187 124 145 165 195 199 185 186 198 194 200 209 213 216 222 210 202 226 263 282 294 304 299 290 295 303 312 306 311 301 289 265 250 244 243 239 235 235 232 231 231 232
203 201 186 200 213 218 213 197 209 224 210 218 227 222 228 235 220 211 213 225 274 289 283 282 299 288 304 309 301 306 299 294 279 259 246 242 242 239 236 233 232 232 232
207 202 205 213 231 235 227 209 224 237 229 233 237 235 236 242 231 228 223 214 227 268 281 272 277 297 304 295 290 293 291 287 279 266 251 242 240 240 238 237 233 232 231
208 206 222 231 243 243 230 217 232 236 234 244 237 237 242 244 244 234 227 222 219 234 260 263 258 278 295 297 295 292 284 284 278 268 255 246 243 242 240 237 236 236 234
208 216 226 232 241 245 237 227 239 240 240 251 248 241 251 249 248 244 232 225 223 219 248 266 258 270 275 281 293 293 285 278 274 267 259 249 243 243 243 241 240 240 238
219 222 226 233 243 245 240 236 250 248 244 253 255 248 255 252 248 247 240 238 234 224 235 264 270 267 261 271 279 287 285 279 272 272 264 253 246 244 244 245 245 244 242
224 226 224 233 242 246 247 246 247 253 251 252 253 251 255 250 254 249 242 244 244 241 230 250 269 264 266 269 280 281 282 280 278 273 264 254 248 247 245 245 246 245 244
222 228 229 235 241 247 250 252 250 252 254 255 253 251 252 247 250 251 248 245 243 245 241 247 262 267 266 267 261 271 280 273 278 281 267 258 252 251 249 247 246 245 243
227 229 234 242 244 245 247 247 246 250 251 258 260 255 254 253 250 245 245 243 238 242 246 250 259 263 262 259 255 254 269 280 276 259 267 262 256 255 252 248 248 246 243
230 228 234 241 247 247 249 250 245 248 251 254 262 263 261 261 261 258 253 248 235 236 244 247 253 257 261 257 254 251 258 271 277 247 246 267 254 259 256 250 245 244 245
226 231 237 238 245 252 254 258 254 247 249 251 253 259 263 260 254 258 263 263 255 244 236 240 251 255 258 250 245 252 247 247 253 256 250 270 255 259 258 254 248 248 247
222 231 238 238 244 255 255 255 256 250 251 252 249 248 252 260 256 250 258 263 262 257 247 242 244 251 253 252 241 247 255 259 261 253 228 255 257 256 262 254 247 246 246
226 229 235 237 242 257 257 256 252 247 251 256 253 247 243 251 254 246 246 256 265 267 257 245 242 249 251 249 240 238 238 240 257 253 213 233 251 256 259 259 249 241 244
232 236 242 241 241 252 257 254 245 237 249 256 257 250 241 241 249 244 237 243 257 265 268 271 262 261 259 257 242 231 232 236 247 253 217 214 235 236 261 249 252 248 244